Weather History for Kodiak, AK

Change the Weather History Date:

Tuesday, February 4, 2014

  Actual Average Record
Temperature  
Mean Temperature 40 °F 30 °F  
Max Temperature 42 °F 35 °F 51 °F (1985)
Min Temperature 38 °F 26 °F 0 °F (1999)
Degree Days  
Heating Degree Days 25 35  
Month to date heating degree days 104 140  
Since 1 July heating degree days 4418 5054  
Cooling Degree Days 0    
Month to date cooling degree days 0  
Year to date cooling degree days 0  
Moisture  
Dew Point 36 °F    
Average Humidity 0    
Maximum Humidity 0    
Minimum Humidity 0    
Precipitation  
Precipitation 0.06 in 0.23 in 2.72 in (1995)
Month to date precipitation 0.97 0.94  
Year to date precipitation 15.27 9.23  
Snow  
Snow 0.00 in 0.60 in 6.20 in (2009)
Month to date snowfall 0.0 2.1  
Since 1 July snowfall 24.0 36.4  
Snow Depth 0.00 in    
Sea Level Pressure  
Sea Level Pressure 30.54 in    
Wind  
Wind Speed 18 mph (East)    
Max Wind Speed 32 mph    
Max Gust Speed 37 mph    
Visibility 9 miles    
Events Rain    
T = Trace of Precipitation, MM = Missing Value Source: NWS Daily Summary

Daily Weather History Graph

Daily Weather History Graph

Search for Another Location

Airport:

Trip Planner

Search our weather history database for the weather conditions in past years. The results will help you decide how hot, cold, wet, or windy it might be!

Date:

Astronomy

Feb. 04, 2014 Rise Set
Actual Time 9:05 AM AKST 5:43 PM AKST
Civil Twilight 8:22 AM AKST 6:26 PM AKST
Nautical Twilight 7:35 AM AKST 7:12 PM AKST
Astronomical Twilight 6:50 AM AKST 7:58 PM AKST
Moon 10:30 AM AKST (2/4) No Moon Set
Length of Visible Light 10h 03m
Length of Day
8h 37m
Waxing Crescent, 30% of the Moon is Illuminated
Feb 4
Waxing Crescent
Feb 6
First Quarter
Feb 14
Full
Feb 22
Last Quarter
Feb 28
New

Hourly Weather History & Observations

Time (AKST) Temp. Windchill Dew Point Humidity Pressure Visibility Wind Dir Wind Speed Gust Speed Precip Events Conditions
12:53 AM 39.9 °F 29.5 °F 37.0 °F 89% 30.38 in 5.0 mi East 24.2 mph 32.2 mph 0.02 in Rain Rain
1:25 AM 39.2 °F 27.6 °F 35.6 °F 87% 30.38 in 10.0 mi East 28.8 mph - 0.03 in   Overcast
1:53 AM 39.9 °F 29.5 °F 36.0 °F 86% 30.39 in 10.0 mi East 24.2 mph 33.4 mph 0.03 in   Overcast
2:33 AM 39.2 °F 28.7 °F 35.6 °F 87% 30.40 in 10.0 mi East 23.0 mph - 0.00 in   Overcast
3:53 AM 39.9 °F 29.7 °F 35.1 °F 83% 30.41 in 10.0 mi East 23.0 mph - 0.00 in   Overcast
4:53 AM 41.0 °F 31.6 °F 36.0 °F 82% 30.42 in 10.0 mi East 20.7 mph - N/A   Overcast
5:53 AM 41.0 °F 31.1 °F 36.0 °F 82% 30.43 in 10.0 mi East 23.0 mph - N/A   Overcast
6:53 AM 41.0 °F 31.6 °F 36.0 °F 82% 30.45 in 10.0 mi East 20.7 mph - N/A   Overcast
7:53 AM 41.0 °F 31.4 °F 37.0 °F 86% 30.47 in 7.0 mi East 21.9 mph - 0.00 in Rain Light Rain
8:53 AM 41.0 °F 32.5 °F 37.0 °F 86% 30.49 in 6.0 mi East 17.3 mph 28.8 mph 0.00 in Rain Light Rain
9:53 AM 41.0 °F 31.4 °F 37.9 °F 89% 30.51 in 10.0 mi East 21.9 mph 27.6 mph 0.01 in Rain Light Rain
10:53 AM 41.0 °F 31.1 °F 37.9 °F 89% 30.52 in 8.0 mi East 23.0 mph - 0.00 in   Overcast
11:53 AM 41.0 °F 31.6 °F 37.9 °F 89% 30.54 in 9.0 mi East 20.7 mph - 0.00 in   Overcast
12:53 PM 41.0 °F 31.4 °F 37.9 °F 89% 30.55 in 8.0 mi East 21.9 mph - 0.00 in   Overcast
1:53 PM 42.1 °F 32.8 °F 37.9 °F 85% 30.55 in 8.0 mi East 21.9 mph - 0.00 in   Overcast
2:53 PM 42.1 °F 33.3 °F 37.9 °F 85% 30.56 in 9.0 mi East 19.6 mph - N/A   Overcast
3:53 PM 42.1 °F 33.6 °F 37.9 °F 85% 30.58 in 9.0 mi East 18.4 mph - N/A   Overcast
4:53 PM 41.0 °F 32.2 °F 36.0 °F 82% 30.60 in 10.0 mi East 18.4 mph - N/A   Overcast
5:53 PM 41.0 °F 32.2 °F 37.0 °F 86% 30.61 in 10.0 mi East 18.4 mph - N/A   Overcast
6:00 PM 41.0 °F 32.8 °F 37.4 °F 87% 30.61 in 10.0 mi East 16.1 mph - N/A   Overcast
6:53 PM 41.0 °F 32.8 °F 37.0 °F 86% 30.63 in 10.0 mi East 16.1 mph - N/A   Overcast
7:53 PM 41.0 °F 33.5 °F 36.0 °F 82% 30.64 in 10.0 mi ESE 13.8 mph - N/A   Overcast
8:53 PM 41.0 °F 33.9 °F 37.0 °F 86% 30.66 in 10.0 mi East 12.7 mph - N/A   Overcast
9:53 PM 39.9 °F 33.9 °F 35.1 °F 83% 30.66 in 10.0 mi SE 9.2 mph - N/A   Overcast
10:53 PM 39.9 °F 37.8 °F 33.1 °F 77% 30.67 in 10.0 mi SSE 3.5 mph - N/A   Overcast
11:40 PM 37.4 °F - 33.8 °F 87% 30.68 in 10.0 mi Calm Calm - N/A   Overcast
11:53 PM 37.9 °F - 34.0 °F 86% 30.68 in 10.0 mi Calm Calm - N/A   Overcast